Location: Arrakis Observatory
(44.1122°N, 95.7153°W)
Time: 11:02:58
(UTC-05:00)

Iridium 35 - Visible Passes

Search period start: 28 March 2015 00:00
Search period end: 07 April 2015 00:00
Orbit: 776 x 779 km, 86.4° (Epoch: 28 March)

Date Brightness Start Highest point End Pass type
(mag) Time Alt. Az. Time Alt. Az. Time Alt. Az.
28 Mar 7.0 21:22:53 10° NNW 21:27:27 30° W 21:31:55 10° SW visible
29 Mar 5.9 20:48:58 10° NNW 20:54:04 54° W 20:59:07 10° SSW visible
30 Mar 5.0 20:15:19 10° N 20:20:34 84° E 20:25:48 10° S visible
30 Mar 8.2 21:58:30 10° NW 22:00:38 12° WNW 22:02:29 10° W visible
31 Mar 7.6 21:23:25 10° NNW 21:27:25 22° W 21:31:15 10° SW visible
01 Apr 6.6 20:49:15 10° NNW 20:54:05 38° W 20:58:50 10° SSW visible
02 Apr 5.5 20:15:27 10° N 20:20:40 69° W 20:25:49 10° S visible
03 Apr 8.1 21:24:14 10° NW 21:27:21 16° WNW 21:30:12 10° WSW visible
04 Apr 7.4 20:49:40 10° NNW 20:54:04 27° W 20:58:21 10° SW visible
05 Apr 6.3 20:15:40 10° NNW 20:20:42 48° W 20:25:39 10° SSW visible
06 Apr 8.6 21:25:58 10° WNW 21:27:13 11° WNW 21:28:08 10° W visible
